Location: Miami, Florida
(25.6830°N, 80.1700°W)
Time: 05:30:10
(UTC-04:00)

Hubble Space Telescope - Pass Details

Date: 15 November 2017
Orbit: 537 x 541 km, 28.5° (Epoch: 24 November)

Event Time Altitude Azimuth Distance (km) Brightness Sun altitude
Exits shadow 05:56:21 23° 190° (S) 1,157 2.4 -23.0°
Maximum altitude 05:57:45 29° 156° (SSE) 1,003 2.4 -22.7°
Drops below altitude 10° 06:01:20 10° 95° (E) 1,780 4.6 -21.9°
Sets 06:03:48 0° 84° (E) 2,673 5.6 -21.4°
